Lexington Weather

Lexington, Massachusetts, USA

46°F
10/26/2020 6:07am 
  • Lexington Conditions: Light rain, Overcast
  • Temperature: 46.0°F / 7.8°CWarmer 0.9°F than last hour.
  • Dew Point: 41.7°FIncreased 2.0°Fsince last hour.
  • Relative Humidity: 85%Increased 4.0% since last hour.
  • Wind: Wind from S S 1 mph, 10-min avg: 1 mph, gust: 4 mph
  • Barometer: 30.27 in Steady
  • Visibility: 10 miles
  • Rain Today: 0.00 in
  •   

Regional Weather Roundup
for Boston / Norton, MA

        
000
ASUS41 KBOX 201807
RWRBOX

REGIONAL WEATHER ROUNDUP
NATIONAL WEATHER SERVICE BOSTON/NORTON MA
200 PM EDT TUE OCT 20 2020

NOTE:  "FAIR" INDICATES FEW OR NO CLOUDS BELOW 12,000 FEET WITH NO 
SIGNIFICANT WEATHER AND/OR OBSTRUCTIONS TO VISIBILITY.

MAZALL-201900-
EASTERN MASSACHUSETTS
  
CITY           SKY/WX    TMP DP  RH WIND       PRES   REMARKS
BOSTON         PTSUNNY   66  58  75 SW13      30.23F                  
6HR MIN TEMP:  52; 6HR MAX TEMP:  66;                                

BEVERLY        CLOUDY    67  58  72 SW8       30.22F                  
LAWRENCE       CLOUDY    65  58  78 SW6       30.25S                  
BEDFORD        CLOUDY    67  59  75 VRB5      30.22F                  
BLUE HILL        N/A     64  58  80 SW9       30.23F                  
NORWOOD        CLOUDY    68  59  73 SW7       30.23F                  
MARSHFIELD     CLOUDY    66  63  88 MISG      30.23F                  
PLYMOUTH       CLOUDY    64  61  90 S6        30.24F                  
TAUNTON        CLOUDY    67  61  81 S5        30.24F                  
NEW BEDFORD    CLOUDY    64  63  96 S3        30.23F FOG              
$$

MAZALL-201900-
CAPE COD AND THE ISLANDS
  
CITY           SKY/WX    TMP DP  RH WIND       PRES   REMARKS
FALMOUTH       CLOUDY    63  61  94 S8        30.24F                  
HYANNIS        NOT AVBL                                               
CHATHAM        CLOUDY    60  57  89 S9        30.26F                  
PROVINCETOWN   CLOUDY    63  61  93 S6        30.25F                  
NANTUCKET      CLOUDY    63  58  83 SE6       30.25S                  
MARTHAS VNYRD  CLOUDY    62  60  93 SE7       30.24S                  
$$
 
MAZALL-201900-
CENTRAL AND WESTERN MASSACHUSETTS
  
CITY           SKY/WX    TMP DP  RH WIND       PRES   REMARKS
WORCESTER      CLOUDY    65  58  78 SW9       30.24F                  
6HR MIN TEMP:  53; 6HR MAX TEMP:  65;                                

FITCHBURG      CLOUDY    65  58  78 CALM      30.23F                  
ORANGE         PTSUNNY   66  58  75 S7        30.24F                  
SPRINGFIELD    PTSUNNY   69  59  71 S5        30.22S                  
WESTFIELD      PTSUNNY   67  60  78 SE8       30.22F                  
NORTH ADAMS    CLOUDY    67  56  67 W8G17     30.21F                  
PITTSFIELD     CLOUDY    63  56  78 SW10      30.22F                  
$$
 
RIZALL-201900-
RHODE ISLAND
  
CITY           SKY/WX    TMP DP  RH WIND       PRES   REMARKS
PROVIDENCE     CLOUDY    65  62  90 S6        30.25S FOG              
6HR MIN TEMP:  51; 6HR MAX TEMP:  65; 6HR PCP:  0.25;                

NEWPORT        LGT RAIN  62  62 100 SE7       30.24F VSB 1/2          
BLOCK ISLAND   CLOUDY    63  62  97 S7        30.24F FOG              
SMITHFIELD     CLOUDY    66  62  87 VRB5        N/A                   
WESTERLY       LGT RAIN  64  62  93 CALM      30.24F FOG              
$$
 
CTZALL-201900-
CONNECTICUT
  
CITY           SKY/WX    TMP DP  RH WIND       PRES   REMARKS
BRADLEY INTL   PTSUNNY   69  60  73 S7        30.22F                  
6HR MIN TEMP:  54; 6HR MAX TEMP:  69;                                

HARTFORD       PTSUNNY   69  61  75 S7        30.22F                  
BRIDGEPORT     CLOUDY    66  61  84 SW5       30.23F                  
DANBURY        CLOUDY    66  61  84 S5        30.24F                  
GROTON         NOT AVBL                                               
NEW HAVEN      CLOUDY    66  63  90 SW3       30.24F                  
CHESTER        CLOUDY    66  64  94 CALM      30.25S FOG              
MERIDEN        CLOUDY    67  60  78 S6        30.23F                  
WILLIMANTIC    CLOUDY    64  62  93 S3        30.24F FOG              
OXFORD         CLOUDY    65  62  90 S8        30.25F                  
$$

MEZ002-015-021-024-NHZ003-005-008-011-012-014-VTZ005-008-201900-
NORTHERN NEW ENGLAND
  
CITY           SKY/WX    TMP DP  RH WIND       PRES   REMARKS
PORTLAND ME    PTSUNNY   62  55  77 SW8       30.23S                  
6HR MIN TEMP:  53; 6HR MAX TEMP:  62; 6HR PCP: TRACE;                

BANGOR ME      CLOUDY    58  51  78 S7        30.21F                  
CONCORD NH     MOSUNNY   66  55  67 S6        30.21F                  
MANCHESTER NH  PTSUNNY   64  55  72 S6        30.21F                  
NASHUA NH      CLOUDY    64  60  87 VRB3      30.23F                  
PORTSMOUTH NH  CLOUDY    61  55  81 SW5       30.22S                  
JAFFREY NH     PTSUNNY   64  55  72 SW8       30.24F                  
KEENE NH       PTSUNNY   65  57  75 S5        30.22F                  
BURLINGTON VT  CLOUDY    51  48  89 N8        30.23R                  
MT. WASHINGTON NOT AVBL                                               
$$

NYZ052-076-201900-
EASTERN NEW YORK
  
CITY           SKY/WX    TMP DP  RH WIND       PRES   REMARKS
ALBANY         CLOUDY    63  58  83 VRB6      30.21F                  
6HR MIN TEMP:  56; 6HR MAX TEMP:  63; 6HR PCP:  0.02;                

NEW YORK CITY  CLOUDY    70  63  78 SW6       30.22F                  
6HR MIN TEMP:  61; 6HR MAX TEMP:  70; 6HR PCP: TRACE;                

$$
 
ANZALL-201900-
MARINE OBSERVATIONS
  
STATION/POSITION TIME  TEMP    WIND        PRES    VSBY  WAVE
                       AIR SEA DIR/SP/G                  HT/PER
                 (UTC) (F)     (DEG/KT/KT) (MB)    (MI)  (FT/S)
BOSTON BUOY      NOT AVBL
BUZZARDS BAY     NOT AVBL
NANTUCKET SOUND  NOT AVBL
MASS BAY-STELLWA NOT AVBL
ISLE OF SHOALS   NOT AVBL
S OF BLOCK IS    NOT AVBL
$$

......................KEY.........................
  SKY/WX - SKY CONDITION/PRESENT WEATHER
  TMP    - TEMPERATURE IN FAHRENHEIT
  DWPT   - DEWPOINT IN FAHRENHEIT
  RH     - RELATIVE HUMIDITY IN PERCENT
  WIND   - DIRECTION AND SPEED IN MPH
  PRES   - MEAN SEA LEVEL PRESSURE IN INCHES OF HG
  WCI    - WIND CHILL INDEX
  VSB    - VISIBILITY IN MILES
  HX     - HEAT INDEX
  TC     - TEMPERATURE IN CELSIUS
  VRB    - VARIABLE WIND DIRECTION
  N/A    - NOT AVAILABLE
  
      

Other recent Regional Weather Roundups

Mon Oct 26, 5:04am

Mon Oct 26, 4:04am

Mon Oct 26, 3:04am

Mon Oct 26, 2:04am

Mon Oct 26, 1:04am

Mon Oct 26, 12:04am

Sun Oct 25, 11:05pm

Sun Oct 25, 10:04pm

Sun Oct 25, 9:04pm

Sun Oct 25, 8:04pm

Sun Oct 25, 7:04pm

Sun Oct 25, 6:04pm

Sun Oct 25, 5:04pm

Sun Oct 25, 4:05pm

Sun Oct 25, 3:04pm

Sun Oct 25, 2:04pm

Sun Oct 25, 1:04pm

Sun Oct 25, 12:04pm

Sun Oct 25, 11:04am

Sun Oct 25, 10:04am

Sun Oct 25, 9:04am

Sun Oct 25, 8:04am

Sun Oct 25, 7:04am

Sun Oct 25, 6:04am

Sun Oct 25, 5:04am

Sun Oct 25, 4:04am

Sun Oct 25, 3:04am

Sun Oct 25, 2:04am

Sun Oct 25, 1:05am

Sun Oct 25, 12:04am

Sat Oct 24, 11:04pm

Sat Oct 24, 10:04pm

Sat Oct 24, 9:04pm

Sat Oct 24, 8:04pm

Sat Oct 24, 7:04pm

Sat Oct 24, 6:04pm

Sat Oct 24, 5:05pm

Sat Oct 24, 4:04pm

Sat Oct 24, 3:04pm

Sat Oct 24, 2:04pm

Sat Oct 24, 1:05pm

Sat Oct 24, 12:04pm

Sat Oct 24, 11:05am

Sat Oct 24, 10:05am

Sat Oct 24, 9:04am

Sat Oct 24, 8:04am

Sat Oct 24, 7:04am

Sat Oct 24, 6:04am

Sat Oct 24, 5:04am

Sat Oct 24, 4:04am

Sat Oct 24, 3:04am

Sat Oct 24, 2:04am

Sat Oct 24, 1:05am

Sat Oct 24, 12:04am

Fri Oct 23, 11:04pm

Fri Oct 23, 10:04pm

Fri Oct 23, 9:04pm

Fri Oct 23, 8:05pm

Fri Oct 23, 7:04pm

Fri Oct 23, 6:04pm

Fri Oct 23, 5:05pm

Fri Oct 23, 4:04pm

Fri Oct 23, 3:04pm

Fri Oct 23, 2:05pm

Fri Oct 23, 1:04pm

Fri Oct 23, 12:04pm

Fri Oct 23, 11:04am

Fri Oct 23, 10:04am

Fri Oct 23, 9:04am

Fri Oct 23, 8:04am

Fri Oct 23, 7:04am

Fri Oct 23, 6:04am

Fri Oct 23, 5:04am

Fri Oct 23, 4:04am

Fri Oct 23, 3:04am

Fri Oct 23, 2:04am

Fri Oct 23, 1:04am

Fri Oct 23, 12:04am

Thu Oct 22, 11:04pm

Thu Oct 22, 10:04pm

Thu Oct 22, 9:05pm

Thu Oct 22, 8:04pm

Thu Oct 22, 7:05pm

Thu Oct 22, 6:04pm

Thu Oct 22, 5:04pm

Thu Oct 22, 4:05pm

Thu Oct 22, 3:04pm

Thu Oct 22, 2:05pm

Thu Oct 22, 1:04pm

Thu Oct 22, 12:04pm

Thu Oct 22, 11:04am

Thu Oct 22, 10:05am

Thu Oct 22, 9:04am

Thu Oct 22, 8:05am

Thu Oct 22, 7:04am

Thu Oct 22, 6:04am

Thu Oct 22, 5:04am

Thu Oct 22, 4:04am

Thu Oct 22, 3:04am

Thu Oct 22, 2:04am

Thu Oct 22, 1:04am

Thu Oct 22, 12:04am

Wed Oct 21, 11:05pm

Wed Oct 21, 10:04pm

Wed Oct 21, 9:04pm

Wed Oct 21, 8:04pm

Wed Oct 21, 7:04pm

Wed Oct 21, 6:04pm

Wed Oct 21, 5:05pm

Wed Oct 21, 4:04pm

Wed Oct 21, 3:04pm

Wed Oct 21, 2:05pm

Wed Oct 21, 1:04pm

Wed Oct 21, 12:04pm

Wed Oct 21, 11:04am

Wed Oct 21, 10:04am

Wed Oct 21, 9:04am

Wed Oct 21, 8:04am

Wed Oct 21, 7:04am

Wed Oct 21, 6:04am

Wed Oct 21, 5:04am

Wed Oct 21, 4:04am

Wed Oct 21, 3:04am

Wed Oct 21, 2:04am

Wed Oct 21, 1:04am

Wed Oct 21, 12:04am

Tue Oct 20, 11:05pm

Tue Oct 20, 10:04pm

Tue Oct 20, 9:04pm

Tue Oct 20, 8:05pm

Tue Oct 20, 7:04pm

Tue Oct 20, 6:04pm

Tue Oct 20, 5:05pm

Tue Oct 20, 4:04pm

Tue Oct 20, 3:05pm

Tue Oct 20, 1:04pm

Tue Oct 20, 12:04pm

Tue Oct 20, 11:04am

Tue Oct 20, 10:05am

Tue Oct 20, 9:04am

Tue Oct 20, 8:04am

Tue Oct 20, 7:04am

Tue Oct 20, 6:04am

Tue Oct 20, 5:04am

Tue Oct 20, 4:04am

Tue Oct 20, 3:04am

Tue Oct 20, 2:04am

Tue Oct 20, 1:04am

Tue Oct 20, 12:04am

Mon Oct 19, 11:04pm

Mon Oct 19, 10:04pm

Mon Oct 19, 9:04pm

Mon Oct 19, 8:04pm

Mon Oct 19, 7:04pm

Mon Oct 19, 6:04pm

Mon Oct 19, 5:04pm

Mon Oct 19, 4:04pm

Mon Oct 19, 3:04pm

Mon Oct 19, 2:04pm

Mon Oct 19, 1:05pm

Mon Oct 19, 12:04pm

Mon Oct 19, 11:04am

Mon Oct 19, 10:04am

Mon Oct 19, 9:04am

Mon Oct 19, 8:04am

Mon Oct 19, 7:04am

Mon Oct 19, 6:04am

Mon Oct 19, 5:04am

Meta data:

ID: d5581228-a0b4-4056-8848-d0b2727c4afc
Link: https://api.weather.gov/products/d5581228-a0b4-4056-8848-d0b2727c4afc